Volver al catálogo

STARLINK-11156

ActivoComunicacionesVLEO
NORAD 61056·PAYLOAD·🇺🇸 United States

Lanzado Sep 13, 2024 desde Vandenberg Space Force Base

Loading…

Próximos Pases (próximas 24 horas)

TLE

ActualizadoSource: CelesTrak SupGP

Época: Sep 14, 2026, 21:40 UTC

1 61056C 24164G   26257.90326389 -.00051245  00000+0 -42205-3 0  2578
2 61056  53.1564  98.1900 0001135  93.5791 187.1872 15.69739004    14

Sigue STARLINK-11156 en tiempo real con AllMySat

Download on the App Store